Погода в Тамбове

Погода в Тамбове : погода сейчас, прогноз погоды и архив. Всё, что Вы хотите узнать о погоде в Тамбове!

Поиск расширенной информации на нашем сайте:

Полезная информация:

Другие новости

Новости СМИ2

Главная страница сайта

Новости сайта

03.07.2017

Напоминаем, что на нашем специализированном сайте Метеоцентр.Азия вы можете получить высокодетализированные автоматические прогнозы погоды по пунктам России, СНГ и мира в авиационном формате (включающие направление и скорость ветра, видимость, явления погоды, количество и форму облачности, нижнюю и верхнюю границу облачности).

Рекомендуем:

Погода в Тамбове - сегодня

Время (UTC), дата Ветер
(°,м/с) 
Видим.   Явления Облачность Т
(°С)
Тd
(°С)
f(%) Тe
(°С)
Pmin
(гПа)
dP
(гПа)
Po
(мм)
O2
(г/м3)
Тmin Tmax R s Состояние
почвы
00 22.05.19 290 (З) 60  10 км    5/0 верхняя 
[Ci fib]
+11.4 +9.4 87 +6  1017.2  -0.7  751  289      130     
03 22.05.19 120 (ЮВ) 10 км    9/0 верхняя 
[Ci fib]
+11.8 +7.3 74 +12  1016.5  -0.7  750  289  +11.3        сухая 
06 22.05.19 190 (Ю) 10 км    9/0 верхняя 
[Ci fib]
+21.1 +5.8 37 +21  1015.3  -0.7  750  280           
09 22.05.19 200 (Ю) 10 км    9/3 1000 м верхняя 
[Cu hum|Ci fib]
+24.6 +5.9 30 +25  1013.6  -1.5  749  276           
12 22.05.19 210 (ЮЗ) 10 км    9/6 1000 м средняя 
[Cu hum|Ac trans]
+23.6 +4.5 29 +24  1012  -1.6  747  277           
15 22.05.19 190 (Ю) 10 км    9/3 1000 м средняя, верхняя 
[Cu hum|Ac trans|Ci sp]
+22.4 +4.8 32 +22  1010.7  -1.3  746  277    +24.9       
18 22.05.19 160 (Ю) 10 км    9/9 1000 м 
[Sc]
+19.9 +8.6 48 +21  1010.6  -0.2  746  279           
21 22.05.19 130 (ЮВ) 10 км    9/0 средняя 
[Ac trans]
+16 +9.4 65 +18  1010.2  -0.6  746  282           
00 23.05.19 130 (ЮВ) 10 км    6/0 верхняя 
[Ci fib]
+12.1 +8.6 79 +12  1009  -1.4  745  286           
03 23.05.19 140 (ЮВ) 10 км    6/0 средняя 
[Ac trans]
+13.8 +10.4 80 +16  1007.8  -1  744  283  +11.2         
06 23.05.19 190 (Ю) 10 км    6/0 средняя 
[Ac trans]
+20.1 +6.7 42 +20  1006.6  -0.9  743  278           
09 23.05.19 210 (ЮЗ) 10 км    4/3 1000 м средняя 
[Cu hum|Ac trans]
+24 +4.8 29 +24  1005  -1.4  742  274           
12 23.05.19 220 (ЮЗ) 10 км    5/5 1000 м 
[Cu med, cong]
+24.8 +5.9 30 +25  1003.2  -1.8  741  273           
15 23.05.19 240 (ЮЗ) 10 км  в посл. час ливневой дождь  8/8 1000 м кучево-дожд. 
[Cb calv]
+19.6 +12.1 62 +24  1003.3  -0.1  741  276    +25.5  0.0     
18 23.05.19 160 (Ю) 10 км  {ливн. осадки}  8/0 средняя, верхняя 
[Ac trans|Ci sp]
+15.2 +12.3 83 +22  1003.9  0.3  741  280           
21 23.05.19 тихо ()   10 км    9/0 средняя 
[Ac trans]
+14.1 +12.4 89 +19  1004.1  0.2  741  282           
00 24.05.19 320 (СЗ) 10 км    4/0 верхняя 
[Ci fib]
+13.3 +11.7 90 +18  1005.1  0.9  742  283           
03 24.05.19 340 (С) 10 км    8/8 210 м 
[St]
+13.5 +12 91 +17  1006.6  1.6  743  283  +12.3         
06 24.05.19 020 (С) 10 км    9/9 800 м 
[Sc]
+15.5 +12.8 84 +21  1009  2.4  745  282           
09 24.05.19 020 (С) 10 км    10/10 800 м 
[Sc]
+16.2 +8.8 61 +17  1011.2  2.2  747  282           
12 24.05.19 020 (С) 10 км    8/8 1410 м 
[Cu hum]
+18.4 +8.1 51 +19  1011.8  0.7  747  281           
15 24.05.19 030 (СВ) 10 км    4/4 1000 м 
[Cu hum]
+17.6 +5.8 46 +18  1011.9  747  282    +19.5       
18 24.05.19 нст () 10 км    4/0 верхняя 
[Ci fib]
+12.7 +4.6 58 +14  1013.8  1.6  748  287           
21 24.05.19 нст () 10 км    3/0 верхняя 
[Ci sp]
+10.2 +1.9 56 +11  1014.8  0.9  749  291           
00 25.05.19 нст () 10 км    8/8 1410 м 
[Sc]
+8.8 +0 54 +10  1014.7  -0.2  749  292           
Время (UTC), дата Ветер
(°,м/с) 
Видим.   Явления Облачность Т
(°С)
Тd
(°С)
f(%) Тe
(°С)
Pmin
(гПа)
dP
(гПа)
Po
(мм)
O2
(г/м3)
Тmin Tmax R s Состояние
почвы

Для получения пояснительной информации подведите курсор к названию столбца.

ПОГОДА в Тамбове - архив

Всё, что Вы хотите узнать о погоде в Тамбове - удобно и подробно!

Выберите нужную дату (начиная с 1 января 2018* года) и нажмите кнопку "Найти".
Будут отображены архивные сводки погоды по пункту Тамбов, начиная с указанной даты.


Отображать данные в формате CSV (для использования в таблицах Excel)


Внимание! Наш архив погоды предназначен исключительно для личного некоммерческого использования в познавательных целях. Если Вам необходимы официальные справки о состоянии погоды (для производственных, юридических, коммерческих и т.п. целей), обращайтесь в органы Росгидромета.

*Примечание: данная дата относится к архиву по метеостанциям СССР (Россия, СНГ, Балтия).
Архив по метеостанциям Зарубежной Европы и Азии (кроме Китая) хранится 10 дней, по другим регионам земного шара (Китай, Африка, Америка, Австралия, Океания) - 1 день.

Тамбов - район местоположения метеостанции


Название, широта, долгота, высота метеостанции:
Тамбов 52.8°ш. 41.3°д. 128 м над ур. моря [Российская Федерация]

Дополнительная информация

В oтличие oт бoльшинства пoгoдных сайтoв мы публикуем пoдрoбную метеoинфoрмацию в детальнoм прoфессиoнальнoм фoрмате.

Характеристики температуры и влажнoсти вoздуха измеряются на высoте 2 м в тени вдали oт зданий и деревьев.
Скoрoсть ветра измеряется на высoте 10 м (на урoвне рoста челoвека скoрoсть ветра ниже в 1.5-2 раза). Если метеoстанция нахoдится в гoрoде или в лесу, тo скoрoсть ветра занижена на 2-4 м/с пo сравнению с oткрытым местoм. Скoрoсть ветра над акватoриями крупных рек и oзёр, а также на вершинах хoлмoв на 2-5 м/с выше, чем в oбычных услoвиях.
Атмoсфернoе давление в разных тoчках местнoсти мoжет значительнo oтличаться oт давления на метеoстанции, в зависимoсти oт услoвий рельефа (при пoдъёме на 10 м давление пoнижается примернo на 1 мм рт.ст.).